Location: Santa Cristina
(46.5667°N, 11.7167°E)
Time: 04:00:40
(UTC+00:00)

AQUA - Pass Details

Date: 21 April 2021
Orbit: 701 x 704 km, 98.2° (Epoch: 10 May)

Event Time Altitude Azimuth Distance (km) Brightness Sun altitude
Rises 01:20:08 0° 12° (NNE) 3,100 8.2 -24.9°
Reaches altitude 10° 01:22:24 10° 12° (NNE) 2,177 7.2 -24.7°
Maximum altitude 01:27:10 84° 285° (WNW) 712 3.7 -24.2°
Enters shadow 01:27:30 76° 222° (SW) 726 3.6 -24.1°
